Regional Weather Roundup
Issued by NWS

Home | Current Version | Previous Version | Graphics & Text | Print | Product List | Glossary On
Versions: 1 2 3 4 5 6 7 8 9 10 11 12 13 14 15 16 17 18 19 20 21 22 23 24 25 26 27 28 29 30 31 32 33 34 35 36 37 38 39 40 41 42 43 44 45 46 47 48 49 50
000
ASUS43 KTOP 300559
RWRKS

WEATHER ROUNDUP FOR KANSAS
NATIONAL WEATHER SERVICE GOODLAND KS
100 AM CDT SAT JUL 30 2016

NOTE:  "FAIR" INDICATES FEW OR NO CLOUDS BELOW 12,000 FEET WITH NO
SIGNIFICANT WEATHER AND/OR OBSTRUCTIONS TO VISIBILITY.

KSZ001>006-013>018-027>032-041>047-300700-
NORTHWEST KANSAS

CITY           SKY/WX    TMP DP  RH WIND       PRES   REMARKS
GOODLAND       CLOUDY    67  62  84 S13       30.09F
6HR MIN TEMP:  65; 6HR MAX TEMP:  78;

HAYS           PTCLDY    70  61  73 E6        30.04R
HILL CITY      CLOUDY    69  66  90 E7        30.05S
6HR MIN TEMP:  69; 6HR MAX TEMP:  85;

RUSSELL        CLOUDY    70  66  87 E8        30.02S
6HR MIN TEMP:  69; 6HR MAX TEMP:  87;

$$

KSZ061>065-074>080-084>089-300700-
SOUTHWEST KANSAS

CITY           SKY/WX    TMP DP  RH WIND       PRES   REMARKS
DODGE CITY     CLOUDY    71  66  84 SE6       30.06R
6HR MIN TEMP:  71; 6HR MAX TEMP:  86;

ELKHART          N/A     70  60  70 E10         N/A
GARDEN CITY    CLOUDY    71  67  87 E7        30.07R
6HR MIN TEMP:  70; 6HR MAX TEMP:  81;

GREAT BEND     PTCLDY    72  63  73 SE8       30.03S
LIBERAL        CLOUDY    73  61  64 SE15      30.05F
$$

KSZ066>073-081>083-090>101-300700-
SOUTHEAST KANSAS

CITY           SKY/WX    TMP DP  RH WIND       PRES   REMARKS
CHANUTE        CLEAR     71  69  93 CALM      30.00F
6HR MIN TEMP:  71; 6HR MAX TEMP:  85;

COFFEYVILLE    CLEAR     72  70  93 NE3       29.99F
6HR MIN TEMP:  72; 6HR MAX TEMP:  86;

HUTCHINSON     PTCLDY    73  68  84 CALM      30.03R
6HR MIN TEMP:  72; 6HR MAX TEMP:  88;

NEWTON         CLOUDY    73  69  87 SE7       30.03S
PARSONS        CLEAR     72  70  93 CALM      30.01F
6HR MIN TEMP:  70; 6HR MAX TEMP:  85;

WICHITA INTL   CLOUDY    74  68  81 CALM      30.02R
6HR MIN TEMP:  74; 6HR MAX TEMP:  87;

WICHITA JABRA  CLOUDY    72  69  90 CALM      30.02R
6HR MIN TEMP:  71; 6HR MAX TEMP:  83;

WINFIELD       CLOUDY    74  69  85 SE3       30.02S
6HR MIN TEMP:  73; 6HR MAX TEMP:  86;

$$

KSZ007>012-019>026-033>040-048>060-102>105-300700-
NORTHEAST KANSAS

CITY           SKY/WX    TMP DP  RH WIND       PRES   REMARKS
CONCORDIA      PTCLDY    67  64  90 E3        30.04S
6HR MIN TEMP:  67; 6HR MAX TEMP:  82;

EMPORIA        CLEAR     70  67  90 E5        30.01F
6HR MIN TEMP:  70; 6HR MAX TEMP:  83;

LAWRENCE       CLEAR     65  64  97 CALM      30.02S
6HR MIN TEMP:  65; 6HR MAX TEMP:  82;

MANHATTAN      CLEAR     69  65  86 CALM      30.02S
6HR MIN TEMP:  69; 6HR MAX TEMP:  84;

OLATHE IND     CLEAR     70  64  81 N7        30.03S
6HR MIN TEMP:  68; 6HR MAX TEMP:  82;

OLATHE EXE     CLEAR     72  62  71 N5        30.03R
6HR MIN TEMP:  72; 6HR MAX TEMP:  83;

SALINA         CLEAR     75  67  76 SE5       30.02F
6HR MIN TEMP:  75; 6HR MAX TEMP:  87;

TOPEKA BILLARD PTCLDY    70  65  84 CALM      30.02S
6HR MIN TEMP:  69; 6HR MAX TEMP:  83;

TOPEKA FORBES  CLOUDY    69  66  90 CALM      30.02S
6HR MIN TEMP:  69; 6HR MAX TEMP:  83;

$$




USA.gov is the U.S. government's official web portal to all federal, state and local government web resources and services.